Regional Weather Roundup
Issued by NWS Albany, NY

Home | Current Version | Previous Version | Text Only | Print | Product List | Glossary On
Versions: 1 2 3 4 5 6 7 8 9 10 11 12 13 14 15 16 17 18 19 20 21 22 23 24 25 26 27 28 29 30 31 32 33 34 35 36 37 38 39 40 41 42 43 44 45 46 47 48 49 50
000
ASUS41 KALY 220110
RWRALY

NEW YORK STATE HOURLY WEATHER ROUNDUP
NATIONAL WEATHER SERVICE ALBANY NY
900 PM EDT FRI JUL 21 2017

NOTE: "FAIR" INDICATES FEW OR NO CLOUDS BELOW 12,000 FEET WITH NO
SIGNIFICANT WEATHER AND/OR NO OBSTRUCTIONS TO VISIBILITY.

NYZ032-033-038>043-046>054-057>066-NYZ062>081-082-084-220200-
EAST


CITY           SKY/WX    TMP DP  RH WIND       PRES   REMARKS
ALBANY         PTCLDY    77  63  61 NW6       29.86R
GLENS FALLS    CLEAR     76  59  55 SW8       29.83S
POUGHKEEPSIE   MOCLDY    77  68  73 CALM      29.83S
NEWBURGH       PTCLDY    81  72  74 CALM      29.88R
MONTGOMERY     CLOUDY    78  72  81 CALM      29.86R
ISLIP          CLOUDY    81  71  71 SW7       29.85S
NEW YORK CITY  MOCLDY    89  68  49 SW10      29.84S HX  93
CENTRAL PARK   CLEAR     85  67  54 CALM      29.88S
$$

NYZ005>009-017-018-044>046-055-056-220200-
CENTRAL


CITY           SKY/WX    TMP DP  RH WIND       PRES   REMARKS
FULTON         CLEAR     70  60  70 SW3       29.90R
SYRACUSE       MOCLDY    71  59  65 W7        29.90R
ROME           CLEAR     70  61  73 N3        29.90R
ELMIRA         MOCLDY    76  70  82 CALM      29.92R
BINGHAMTON     CLOUDY    74  67  78 N7        29.94S
$$

NYZ026>034-041>043-087-220200-
NORTH


CITY           SKY/WX    TMP DP  RH WIND       PRES   REMARKS
WATERTOWN      PTCLDY    72  65  78 SW6       29.87R
FORT DRUM      NOT AVBL
OGDENSBURG     FAIR      72  66  81 CALM      29.85R
MASSENA        CLEAR     71  65  81 SW5       29.84R
SARANAC LAKE   PTCLDY    69  62  78 W3        29.89R
PLATTSBURGH    PTCLDY    75  64  68 W3        29.82R
$$

NYZ001>004-010>016-019>021-085-220200-
WEST


CITY           SKY/WX    TMP DP  RH WIND       PRES   REMARKS
NIAGARA FALLS  CLEAR     77  60  55 W5        29.92S
BUFFALO        PTCLDY    77  67  71 W7        29.92F
DUNKIRK        PTCLDY    75  68  78 SW6       29.94F
JAMESTOWN      CLOUDY    73  61  64 W7        30.00S
WELLSVILLE     CLOUDY    72  65  78 NW9       30.02R
ROCHESTER      MOCLDY    76  63  64 CALM      29.92S
PENN YAN       CLOUDY    76  64  66 CALM      29.94R
$$

             KEY
       WCI = WIND CHILL INDEX
       VSB = VISIBILITY
       HX  = HEAT INDEX
$$



USA.gov is the U.S. government's official web portal to all federal, state and local government web resources and services.